2020/08/24 23:28:08+0000,-40.51,-42.62,-40.20,-48.39,-55.21,-56.38
2020/08/24 23:29:00+0000,-40.86,-43.46,-39.41,-48.42,-55.54,-56.06
2020/08/24 23:29:52+0000,-41.09,-42.16,-41.19,-48.51,-55.62,-56.44
2020/08/24 23:30:44+0000,-40.22,-42.22,-41.06,-48.52,-55.53,-55.90
2020/08/24 23:31:44+0000,-40.61,-41.29,-40.33,-48.58,-55.28,-56.25
2020/08/24 23:32:36+0000,-40.16,-43.44,-40.39,-48.07,-55.32,-56.47
2020/08/24 23:33:28+0000,-40.85,-42.09,-39.71,-47.80,-55.83,-55.84
2020/08/24 23:34:20+0000,-41.11,-43.38,-40.01,-48.24,-54.18,-56.23
2020/08/24 23:35:12+0000,-40.43,-42.33,-39.67,-48.51,-55.56,-56.31
2020/08/24 23:36:04+0000,-40.32,-43.02,-39.65,-48.56,-54.75,-56.18
2020/08/24 23:36:57+0000,-41.28,-43.63,-39.48,-48.59,-54.99,-56.14
2020/08/24 23:37:49+0000,-40.62,-43.28,-39.21,-48.95,-54.90,-56.63
2020/08/24 23:38:41+0000,-40.37,-42.35,-39.97,-48.36,-54.87,-55.63
2020/08/24 23:39:33+0000,-40.57,-42.61,-38.75,-49.00,-55.30,-55.82
2020/08/24 23:40:25+0000,-40.46,-41.73,-39.18,-48.59,-55.69,-56.30
2020/08/24 23:41:22+0000,-40.68,-42.44,-40.51,-48.32,-55.84,-56.30
2020/08/24 23:42:14+0000,-40.63,-42.86,-39.65,-48.74,-55.42,-56.13
2020/08/24 23:43:06+0000,-40.85,-41.93,-40.19,-48.37,-55.17,-56.04
2020/08/24 23:43:58+0000,-39.70,-41.56,-40.23,-48.44,-55.28,-55.64
2020/08/24 23:44:51+0000,-39.73,-42.83,-40.26,-48.18,-54.80,-56.54
2020/08/24 23:45:43+0000,-40.28,-43.15,-40.38,-47.84,-55.11,-56.51
2020/08/24 23:46:35+0000,-40.29,-41.97,-40.20,-48.57,-54.47,-56.38
2020/08/24 23:47:27+0000,-40.57,-43.14,-40.65,-48.24,-55.51,-55.82
2020/08/24 23:48:19+0000,-41.21,-41.53,-39.91,-48.39,-55.24,-55.82
2020/08/24 23:49:11+0000,-40.61,-43.08,-39.61,-48.54,-55.75,-56.48
2020/08/24 23:50:03+0000,-40.07,-41.63,-39.12,-48.11,-55.22,-56.25
2020/08/24 23:51:03+0000,-40.46,-42.98,-39.17,-47.95,-54.53,-55.85
2020/08/24 23:51:55+0000,-40.70,-41.43,-38.70,-48.58,-55.57,-56.09
2020/08/24 23:52:47+0000,-40.89,-42.67,-39.30,-47.74,-55.37,-55.44
2020/08/24 23:53:39+0000,-40.43,-41.75,-39.37,-48.66,-54.66,-56.05
2020/08/24 23:54:31+0000,-41.29,-43.08,-39.43,-47.91,-55.83,-55.83
2020/08/24 23:55:23+0000,-40.78,-41.81,-40.36,-47.57,-55.08,-56.18
2020/08/24 23:56:15+0000,-40.80,-42.68,-39.22,-48.69,-54.65,-55.63
2020/08/24 23:57:07+0000,-40.85,-43.22,-39.33,-48.64,-55.92,-55.88
2020/08/24 23:57:59+0000,-40.95,-42.67,-40.60,-48.59,-55.33,-56.40
2020/08/24 23:58:51+0000,-40.56,-42.78,-40.38,-49.32,-54.90,-56.59
2020/08/24 23:59:43+0000,-40.48,-42.48,-39.95,-45.38,-54.81,-56.23
2020/08/25 00:00:35+0000,-41.13,-43.39,-39.72,-48.56,-55.35,-56.57
2020/08/25 00:01:41+0000,-41.05,-42.20,-38.92,-47.30,-55.51,-56.43
2020/08/25 00:02:33+0000,-40.94,-42.59,-39.14,-47.56,-55.47,-56.27
2020/08/25 00:03:25+0000,-40.84,-42.82,-39.89,-47.95,-55.19,-56.35
2020/08/25 00:04:17+0000,-41.37,-41.96,-40.12,-47.96,-55.43,-56.07
2020/08/25 00:05:09+0000,-40.99,-41.63,-39.40,-44.16,-55.40,-56.55
2020/08/25 00:06:01+0000,-40.83,-42.73,-40.26,-47.38,-55.32,-56.28
2020/08/25 00:06:53+0000,-39.72,-41.32,-39.49,-47.13,-55.37,-56.52
2020/08/25 00:07:45+0000,-40.83,-41.59,-39.68,-46.93,-55.03,-55.96
2020/08/25 00:08:37+0000,-40.18,-42.16,-40.23,-46.16,-54.63,-56.23
2020/08/25 00:09:29+0000,-38.34,-42.50,-39.88,-47.51,-55.34,-56.17
2020/08/25 00:10:22+0000,-39.65,-41.94,-40.13,-47.70,-54.73,-56.07
2020/08/25 00:11:25+0000,-39.77,-42.31,-39.73,-47.19,-55.11,-55.91
2020/08/25 00:12:17+0000,-40.17,-41.99,-39.73,-46.54,-55.02,-56.05
2020/08/25 00:13:09+0000,-39.81,-41.56,-39.01,-46.01,-54.83,-56.17
2020/08/25 00:14:01+0000,-39.90,-41.74,-39.20,-46.82,-54.10,-55.83
2020/08/25 00:14:53+0000,-40.61,-45.79,-39.68,-47.28,-55.22,-56.38
2020/08/25 00:15:45+0000,-40.14,-45.34,-40.48,-47.26,-54.10,-56.77
2020/08/25 00:16:37+0000,-39.98,-45.12,-38.98,-46.67,-53.54,-56.44
2020/08/25 00:17:29+0000,-40.50,-45.61,-39.81,-47.70,-53.82,-56.20
2020/08/25 00:18:22+0000,-39.50,-44.84,-39.66,-48.10,-53.67,-56.21
2020/08/25 00:19:14+0000,-39.78,-44.67,-39.79,-47.84,-55.18,-56.13
2020/08/25 00:20:06+0000,-40.00,-45.06,-39.53,-48.22,-55.56,-56.22
2020/08/25 00:21:05+0000,-40.52,-44.31,-39.19,-47.93,-55.32,-55.96
2020/08/25 00:21:57+0000,-39.35,-44.44,-39.30,-47.21,-54.77,-56.09
2020/08/25 00:22:49+0000,-39.39,-44.40,-38.53,-47.94,-54.92,-56.22
2020/08/25 00:23:41+0000,-39.94,-45.01,-39.55,-47.30,-54.96,-56.19
2020/08/25 00:24:33+0000,-37.93,-44.34,-38.99,-47.75,-55.22,-56.60
2020/08/25 00:25:25+0000,-40.21,-44.17,-39.81,-47.93,-54.15,-56.09
2020/08/25 00:26:17+0000,-39.45,-44.10,-38.18,-47.39,-55.22,-55.77
2020/08/25 00:27:09+0000,-38.08,-44.68,-38.41,-46.97,-54.34,-55.85
2020/08/25 00:28:01+0000,-39.15,-44.40,-37.97,-47.62,-55.26,-56.30
2020/08/25 00:28:53+0000,-38.82,-43.94,-38.77,-47.32,-55.23,-56.09
2020/08/25 00:29:46+0000,-39.51,-44.61,-39.31,-47.29,-55.03,-56.49
2020/08/25 00:30:38+0000,-38.85,-43.77,-38.95,-48.36,-55.75,-55.50
2020/08/25 00:31:37+0000,-39.90,-44.31,-39.43,-47.61,-55.89,-55.67
2020/08/25 00:32:29+0000,-39.66,-44.41,-39.81,-47.59,-54.69,-55.92
2020/08/25 00:33:21+0000,-39.43,-44.90,-39.41,-48.23,-54.23,-56.85
2020/08/25 00:34:13+0000,-39.62,-45.23,-39.42,-47.51,-54.61,-56.48
2020/08/25 00:35:06+0000,-38.09,-45.62,-40.30,-46.91,-54.00,-56.29
2020/08/25 00:35:58+0000,-38.32,-45.35,-38.86,-47.40,-55.62,-56.96
2020/08/25 00:36:50+0000,-39.89,-44.84,-39.76,-47.89,-55.34,-56.07
2020/08/25 00:37:42+0000,-39.46,-45.15,-39.32,-46.49,-54.99,-56.34
2020/08/25 00:38:34+0000,-38.88,-44.40,-40.68,-47.84,-54.62,-55.99
2020/08/25 00:39:26+0000,-39.20,-45.00,-40.35,-46.88,-54.92,-55.53
2020/08/25 00:40:18+0000,-38.76,-44.63,-60.98,-47.45,-55.47,-56.47
2020/08/25 00:41:38+0000,-38.87,-44.24,-39.88,-47.53,-54.78,-55.77
2020/08/25 00:42:30+0000,-38.98,-45.43,-39.80,-47.46,-55.30,-55.95
2020/08/25 00:43:22+0000,-39.79,-44.94,-39.47,-47.85,-55.14,-56.29
2020/08/25 00:44:14+0000,-39.31,-45.22,-40.48,-48.13,-55.35,-56.14
2020/08/25 00:45:06+0000,-38.62,-44.91,-39.73,-48.04,-55.92,-56.06
2020/08/25 00:45:58+0000,-39.50,-44.97,-40.54,-47.13,-54.89,-55.86
2020/08/25 00:46:50+0000,-39.85,-44.90,-40.31,-47.61,-54.95,-56.03
2020/08/25 00:47:42+0000,-39.39,-44.58,-41.25,-47.48,-53.40,-55.56
2020/08/25 00:48:34+0000,-39.24,-45.25,-40.23,-47.94,-54.26,-55.68
2020/08/25 00:49:26+0000,-39.23,-46.07,-40.33,-47.44,-54.15,-56.34
2020/08/25 00:50:18+0000,-39.72,-44.98,-40.23,-48.07,-54.19,-56.08
2020/08/25 00:51:24+0000,-39.89,-45.22,-40.39,-46.90,-54.64,-56.89
2020/08/25 00:52:16+0000,-37.81,-44.81,-39.77,-47.02,-54.78,-56.27
2020/08/25 00:53:09+0000,-38.86,-45.45,-39.40,-48.42,-54.73,-56.48
2020/08/25 00:54:01+0000,-40.08,-45.42,-39.61,-48.14,-55.18,-56.07
2020/08/25 00:54:53+0000,-40.06,-45.81,-39.16,-48.16,-55.37,-56.58
2020/08/25 00:55:45+0000,-41.56,-44.98,-40.33,-48.42,-55.55,-55.96
2020/08/25 00:56:37+0000,-39.65,-45.39,-39.67,-47.37,-55.11,-56.07
2020/08/25 00:57:29+0000,-39.45,-45.56,-39.96,-47.24,-55.15,-55.89
2020/08/25 00:58:21+0000,-39.39,-45.93,-40.19,-47.16,-55.05,-56.19
2020/08/25 00:59:13+0000,-38.94,-45.58,-40.64,-47.34,-55.08,-55.79
2020/08/25 01:00:05+0000,-39.05,-45.19,-40.14,-47.94,-55.78,-56.09
2020/08/25 01:01:06+0000,-39.54,-45.67,-40.13,-47.21,-54.73,-55.89
2020/08/25 01:01:58+0000,-39.62,-45.18,-40.68,-47.59,-54.94,-56.22
2020/08/25 01:02:50+0000,-38.85,-45.48,-40.04,-47.15,-54.37,-55.71
2020/08/25 01:03:42+0000,-38.70,-44.22,-40.12,-47.11,-54.76,-56.26
2020/08/25 01:04:34+0000,-38.70,-46.32,-40.29,-47.97,-55.39,-55.54
2020/08/25 01:05:26+0000,-39.66,-46.19,-40.22,-46.72,-55.82,-56.22
2020/08/25 01:06:18+0000,-39.15,-44.95,-40.22,-47.32,-54.83,-56.45
2020/08/25 01:07:10+0000,-39.46,-44.40,-40.91,-47.51,-55.34,-56.14
2020/08/25 01:08:02+0000,-38.95,-45.14,-40.44,-49.22,-55.31,-55.82
2020/08/25 01:08:54+0000,-39.88,-45.38,-39.51,-47.84,-55.19,-55.08
2020/08/25 01:09:47+0000,-39.79,-45.08,-40.15,-48.26,-55.48,-55.66
2020/08/25 01:10:39+0000,-40.49,-45.48,-39.26,-48.14,-55.12,-55.84
2020/08/25 01:11:37+0000,-39.71,-45.61,-39.57,-48.32,-55.21,-55.64
2020/08/25 01:12:29+0000,-38.79,-45.20,-39.47,-48.27,-55.41,-55.78
2020/08/25 01:13:21+0000,-39.54,-46.30,-40.45,-47.76,-55.29,-55.85
2020/08/25 01:14:13+0000,-38.68,-45.17,-40.30,-48.65,-55.00,-55.51
2020/08/25 01:15:05+0000,-39.20,-46.14,-39.42,-47.34,-55.05,-55.62
2020/08/25 01:15:57+0000,-39.00,-45.39,-39.81,-47.19,-54.40,-56.11
2020/08/25 01:16:50+0000,-38.92,-45.50,-39.85,-48.42,-54.74,-56.00
2020/08/25 01:17:42+0000,-39.76,-45.09,-40.20,-48.45,-54.77,-56.30
2020/08/25 01:18:34+0000,-39.14,-45.06,-40.36,-48.13,-55.12,-55.65
2020/08/25 01:19:26+0000,-38.64,-45.10,-39.91,-47.81,-55.27,-55.70
2020/08/25 01:20:18+0000,-38.86,-45.05,-40.15,-49.17,-54.96,-56.14
2020/08/25 01:21:31+0000,-38.94,-44.20,-40.97,-47.88,-55.07,-55.78
2020/08/25 01:22:23+0000,-39.03,-45.08,-40.93,-47.34,-55.06,-55.99
2020/08/25 01:23:15+0000,-39.23,-44.84,-40.44,-48.16,-54.96,-55.71
2020/08/25 01:24:07+0000,-39.61,-45.29,-38.81,-47.74,-55.38,-55.72
2020/08/25 01:24:59+0000,-38.67,-45.60,-39.19,-47.04,-54.50,-55.92
2020/08/25 01:25:51+0000,-39.21,-45.98,-39.76,-48.14,-55.35,-55.87
2020/08/25 01:26:43+0000,-38.92,-44.27,-40.15,-47.41,-55.66,-55.79
2020/08/25 01:27:35+0000,-38.76,-45.95,-40.08,-47.98,-54.57,-56.19
2020/08/25 01:28:27+0000,-39.28,-44.57,-39.51,-46.73,-55.44,-55.94
2020/08/25 01:29:19+0000,-39.44,-44.37,-39.77,-48.28,-54.40,-55.85
2020/08/25 01:30:11+0000,-38.72,-44.75,-39.41,-47.35,-54.39,-56.19
2020/08/25 01:31:19+0000,-37.82,-44.87,-39.94,-47.70,-55.18,-56.19
2020/08/25 01:32:11+0000,-37.66,-44.79,-40.01,-48.41,-54.73,-55.62
2020/08/25 01:33:03+0000,-38.27,-45.20,-39.92,-48.15,-53.92,-56.36
2020/08/25 01:33:56+0000,-39.19,-44.37,-39.44,-47.96,-53.98,-56.19
2020/08/25 01:34:48+0000,-38.93,-44.59,-40.42,-48.11,-53.23,-55.95
2020/08/25 01:35:40+0000,-38.89,-43.96,-39.87,-47.91,-53.40,-55.54
2020/08/25 01:36:32+0000,-38.34,-44.41,-39.82,-47.80,-54.34,-56.10
2020/08/25 01:37:24+0000,-38.40,-45.79,-41.06,-47.98,-54.04,-55.46
2020/08/25 01:38:16+0000,-39.46,-44.86,-39.63,-48.18,-53.46,-55.77
2020/08/25 01:39:08+0000,-39.25,-44.87,-39.90,-48.15,-53.36,-55.99
2020/08/25 01:40:00+0000,-39.83,-43.79,-39.84,-48.40,-53.49,-56.26
2020/08/25 01:41:02+0000,-37.62,-43.74,-40.45,-48.13,-54.37,-55.95
2020/08/25 01:41:54+0000,-37.61,-44.96,-40.02,-48.41,-53.59,-56.09
2020/08/25 01:42:46+0000,-38.75,-44.91,-40.28,-48.88,-53.80,-55.83
2020/08/25 01:43:38+0000,-38.67,-43.97,-39.90,-48.78,-53.79,-56.07
2020/08/25 01:44:30+0000,-38.33,-44.83,-39.13,-48.81,-53.81,-55.97
2020/08/25 01:45:22+0000,-37.39,-45.06,-39.29,-48.74,-53.30,-56.13
2020/08/25 01:46:14+0000,-39.70,-44.68,-40.33,-48.89,-53.59,-55.49
2020/08/25 01:47:06+0000,-37.92,-45.43,-39.80,-47.91,-53.64,-56.32
2020/08/25 01:47:58+0000,-40.21,-44.75,-39.95,-47.59,-54.56,-56.05
2020/08/25 01:48:50+0000,-40.72,-45.01,-39.49,-48.14,-54.06,-55.99
2020/08/25 01:49:42+0000,-39.10,-44.66,-39.48,-47.86,-54.98,-56.10
2020/08/25 01:50:35+0000,-40.38,-43.47,-38.73,-48.01,-54.72,-55.85
2020/08/25 01:51:42+0000,-39.66,-44.27,-39.23,-48.15,-55.05,-55.39
2020/08/25 01:52:34+0000,-39.56,-43.68,-39.85,-47.80,-54.83,-55.72
2020/08/25 01:53:26+0000,-38.54,-43.82,-39.41,-47.10,-55.49,-55.69
2020/08/25 01:54:18+0000,-39.57,-41.57,-40.24,-48.13,-54.72,-55.77
2020/08/25 01:55:10+0000,-37.85,-42.27,-39.80,-47.38,-55.00,-55.48
2020/08/25 01:56:02+0000,-38.46,-42.21,-39.89,-48.04,-54.68,-55.48
2020/08/25 01:56:54+0000,-38.48,-41.75,-39.66,-48.34,-54.71,-55.58
2020/08/25 01:57:46+0000,-39.90,-42.11,-38.86,-47.98,-55.01,-54.78
2020/08/25 01:58:38+0000,-39.98,-40.66,-39.13,-48.44,-55.38,-56.19
2020/08/25 01:59:31+0000,-39.51,-41.84,-39.50,-48.06,-54.57,-56.05
2020/08/25 02:00:23+0000,-40.67,-41.44,-39.13,-47.81,-55.11,-55.46
2020/08/25 02:01:21+0000,-39.23,-41.68,-39.90,-48.06,-54.88,-56.17
2020/08/25 02:02:13+0000,-40.18,-42.51,-39.54,-48.54,-55.21,-55.88
2020/08/25 02:03:05+0000,-40.04,-42.39,-39.62,-47.56,-54.78,-55.80
2020/08/25 02:03:57+0000,-39.92,-43.29,-39.21,-48.25,-55.41,-55.98
2020/08/25 02:04:49+0000,-39.22,-41.54,-39.66,-47.61,-54.54,-55.44
2020/08/25 02:05:41+0000,-39.77,-42.16,-39.83,-47.40,-55.45,-55.62
2020/08/25 02:06:33+0000,-39.70,-42.07,-39.75,-48.22,-55.28,-56.31
2020/08/25 02:07:25+0000,-40.29,-41.57,-39.80,-47.88,-54.88,-55.91
2020/08/25 02:08:17+0000,-40.95,-41.48,-39.22,-48.49,-55.76,-55.76
2020/08/25 02:09:09+0000,-40.79,-42.17,-39.56,-47.74,-55.47,-55.88
2020/08/25 02:10:02+0000,-39.81,-40.22,-39.51,-48.16,-55.14,-55.63
2020/08/25 02:11:04+0000,-40.69,-40.63,-38.79,-47.32,-56.37,-55.95
2020/08/25 02:11:56+0000,-39.95,-41.87,-39.85,-47.70,-55.88,-55.85
2020/08/25 02:12:48+0000,-40.65,-41.94,-39.31,-48.37,-55.35,-55.50
2020/08/25 02:13:40+0000,-39.27,-41.97,-38.87,-47.90,-55.28,-55.45
2020/08/25 02:14:32+0000,-39.82,-40.21,-39.53,-46.88,-55.36,-56.17
2020/08/25 02:15:24+0000,-39.14,-41.38,-39.57,-48.20,-54.83,-55.97
2020/08/25 02:16:17+0000,-40.34,-42.40,-39.01,-48.06,-55.12,-55.91
2020/08/25 02:17:09+0000,-38.52,-42.47,-38.87,-47.62,-55.89,-56.00
2020/08/25 02:18:01+0000,-39.37,-41.86,-39.22,-47.77,-55.70,-56.27
2020/08/25 02:18:53+0000,-39.65,-41.65,-38.94,-48.42,-55.93,-56.03
2020/08/25 02:19:45+0000,-39.83,-41.65,-39.10,-48.00,-55.43,-56.08
2020/08/25 02:20:37+0000,-39.70,-43.22,-39.95,-49.62,-55.91,-55.86
2020/08/25 02:21:58+0000,-40.00,-40.54,-39.74,-48.83,-54.95,-55.80
2020/08/25 02:22:50+0000,-38.93,-43.67,-40.20,-49.05,-55.55,-55.66
2020/08/25 02:23:42+0000,-39.84,-42.28,-39.94,-50.15,-55.89,-55.87
2020/08/25 02:24:34+0000,-38.30,-40.97,-40.03,-48.96,-55.17,-55.98
2020/08/25 02:25:27+0000,-39.25,-41.87,-39.91,-48.66,-55.69,-55.84
2020/08/25 02:26:19+0000,-39.58,-42.63,-39.85,-48.87,-55.37,-56.15
2020/08/25 02:27:11+0000,-39.63,-42.48,-40.28,-49.02,-56.19,-56.16
2020/08/25 02:28:03+0000,-39.05,-41.70,-39.96,-49.66,-55.57,-55.62
2020/08/25 02:28:55+0000,-39.09,-42.09,-40.19,-49.59,-55.33,-55.81
2020/08/25 02:29:47+0000,-39.53,-41.72,-40.42,-50.50,-55.14,-55.40
2020/08/25 02:30:39+0000,-40.06,-41.42,-39.77,-50.59,-55.73,-56.03
2020/08/25 02:31:38+0000,-40.08,-41.28,-38.27,-49.28,-55.33,-55.78
2020/08/25 02:32:30+0000,-40.67,-41.74,-37.77,-49.65,-55.53,-56.14
2020/08/25 02:33:22+0000,-40.10,-42.52,-39.49,-49.32,-55.06,-55.99
2020/08/25 02:34:14+0000,-41.15,-40.71,-36.87,-49.63,-55.22,-55.99
2020/08/25 02:35:06+0000,-39.85,-42.99,-37.75,-49.40,-55.36,-55.59
2020/08/25 02:35:59+0000,-38.25,-40.51,-37.37,-49.87,-56.18,-55.74
2020/08/25 02:36:51+0000,-38.29,-42.80,-37.72,-49.49,-55.74,-55.40
2020/08/25 02:37:43+0000,-39.43,-41.41,-38.04,-49.72,-55.27,-55.37
2020/08/25 02:38:35+0000,-38.54,-41.77,-38.69,-49.81,-55.42,-56.20
2020/08/25 02:39:27+0000,-38.23,-42.95,-37.89,-48.45,-54.75,-55.80
2020/08/25 02:40:19+0000,-38.40,-41.28,-37.99,-50.25,-56.09,-56.12
2020/08/25 02:41:26+0000,-39.72,-42.24,-37.97,-51.32,-54.79,-56.29
2020/08/25 02:42:18+0000,-39.69,-41.68,-34.80,-50.92,-55.69,-55.48
2020/08/25 02:43:10+0000,-38.61,-41.26,-37.27,-51.16,-54.83,-56.11
2020/08/25 02:44:02+0000,-39.72,-40.24,-36.56,-50.33,-55.07,-55.38
2020/08/25 02:44:54+0000,-38.93,-41.46,-38.47,-49.96,-55.61,-55.87
2020/08/25 02:45:46+0000,-39.28,-41.53,-36.57,-50.31,-55.72,-55.45
2020/08/25 02:46:38+0000,-40.47,-41.79,-35.73,-50.79,-55.17,-55.57
2020/08/25 02:47:30+0000,-40.18,-41.82,-36.51,-50.31,-55.35,-56.42
2020/08/25 02:48:22+0000,-39.18,-42.00,-37.37,-50.85,-55.84,-55.47
2020/08/25 02:49:14+0000,-39.22,-41.06,-38.36,-50.55,-55.10,-55.88
2020/08/25 02:50:06+0000,-37.04,-42.82,-37.70,-50.71,-55.24,-55.58
2020/08/25 02:51:12+0000,-38.82,-40.35,-37.57,-50.76,-55.74,-55.79
2020/08/25 02:52:04+0000,-38.73,-41.46,-36.78,-50.76,-55.74,-55.96
2020/08/25 02:52:56+0000,-38.52,-41.76,-37.71,-49.20,-55.73,-55.48
2020/08/25 02:53:48+0000,-39.30,-40.55,-36.17,-50.43,-55.85,-55.98
2020/08/25 02:54:40+0000,-37.41,-41.03,-37.30,-50.55,-55.49,-55.55
2020/08/25 02:55:32+0000,-39.11,-42.02,-38.78,-51.06,-55.50,-55.83
2020/08/25 02:56:24+0000,-37.87,-42.10,-37.15,-50.30,-55.44,-55.44
2020/08/25 02:57:16+0000,-40.08,-41.61,-37.18,-49.45,-55.24,-55.10
2020/08/25 02:58:08+0000,-39.06,-44.38,-37.97,-49.25,-55.79,-56.50
2020/08/25 02:59:00+0000,-40.09,-41.73,-36.91,-49.74,-55.82,-55.52
2020/08/25 02:59:52+0000,-39.11,-44.14,-36.32,-49.06,-54.65,-56.29
2020/08/25 03:00:44+0000,-39.04,-41.99,-37.55,-50.56,-55.20,-55.21
2020/08/25 03:01:51+0000,-39.09,-42.73,-39.16,-51.57,-54.49,-55.21
2020/08/25 03:02:43+0000,-39.39,-42.27,-38.95,-51.42,-55.65,-56.45
2020/08/25 03:03:35+0000,-40.21,-43.80,-39.23,-51.89,-54.98,-55.66
2020/08/25 03:04:27+0000,-40.24,-41.61,-37.43,-50.61,-55.32,-55.53
2020/08/25 03:05:19+0000,-40.15,-41.64,-38.13,-50.38,-55.52,-55.41
2020/08/25 03:06:11+0000,-38.11,-41.99,-36.13,-50.38,-55.24,-55.92
2020/08/25 03:07:03+0000,-38.16,-40.69,-37.03,-50.16,-55.70,-55.61
2020/08/25 03:07:55+0000,-38.40,-42.23,-38.58,-50.16,-55.72,-56.32
2020/08/25 03:08:47+0000,-39.60,-41.20,-38.26,-51.41,-55.88,-55.33
2020/08/25 03:09:39+0000,-39.10,-42.02,-36.86,-51.27,-55.45,-55.98
2020/08/25 03:10:31+0000,-39.48,-42.37,-38.50,-50.04,-55.90,-55.90
2020/08/25 03:11:30+0000,-38.59,-43.47,-36.81,-50.68,-55.02,-55.47
2020/08/25 03:12:22+0000,-38.26,-41.16,-39.53,-50.88,-55.21,-55.76
2020/08/25 03:13:15+0000,-39.17,-42.25,-36.79,-50.37,-55.49,-56.04
2020/08/25 03:14:07+0000,-39.15,-44.53,-38.06,-50.32,-55.50,-56.33
2020/08/25 03:14:59+0000,-40.32,-41.08,-39.02,-50.00,-55.13,-55.20
2020/08/25 03:15:51+0000,-38.10,-43.93,-37.37,-51.39,-55.74,-55.42
2020/08/25 03:16:43+0000,-38.91,-42.07,-36.58,-50.23,-55.37,-55.14
2020/08/25 03:17:35+0000,-39.23,-43.93,-39.06,-50.71,-55.59,-55.59
2020/08/25 03:18:27+0000,-38.32,-44.31,-36.54,-51.70,-55.18,-55.50
2020/08/25 03:19:19+0000,-37.26,-42.91,-37.84,-50.92,-55.25,-55.48
2020/08/25 03:20:11+0000,-39.22,-43.70,-39.55,-50.91,-55.65,-55.04
2020/08/25 03:21:15+0000,-39.53,-43.62,-38.39,-51.79,-55.38,-55.33
2020/08/25 03:22:07+0000,-39.86,-42.94,-38.71,-51.26,-54.50,-55.40
2020/08/25 03:23:00+0000,-41.00,-43.97,-38.47,-50.40,-55.39,-55.59
2020/08/25 03:23:52+0000,-40.03,-42.79,-38.15,-51.08,-55.31,-55.55
2020/08/25 03:24:44+0000,-40.17,-40.56,-38.13,-49.73,-55.74,-55.51
2020/08/25 03:25:36+0000,-39.12,-44.25,-37.81,-50.93,-55.22,-55.31
2020/08/25 03:26:28+0000,-33.93,-43.15,-39.02,-51.56,-55.68,-55.59
2020/08/25 03:27:20+0000,-39.77,-42.65,-37.28,-50.67,-55.33,-55.50
2020/08/25 03:28:12+0000,-39.55,-40.84,-38.00,-51.18,-56.01,-55.30
2020/08/25 03:29:04+0000,-37.44,-42.50,-37.90,-50.83,-55.50,-55.79
2020/08/25 03:29:56+0000,-36.13,-43.50,-36.80,-49.65,-55.97,-55.39
2020/08/25 03:30:48+0000,-38.02,-41.79,-38.02,-50.85,-55.31,-55.49
2020/08/25 03:31:47+0000,-35.93,-39.20,-36.56,-50.05,-54.81,-55.81
2020/08/25 03:32:39+0000,-37.85,-39.63,-36.73,-50.19,-55.68,-55.77
2020/08/25 03:33:31+0000,-38.12,-42.39,-36.39,-50.34,-55.09,-55.68
2020/08/25 03:34:23+0000,-37.16,-43.19,-36.68,-49.94,-55.50,-55.42
2020/08/25 03:35:15+0000,-38.49,-40.23,-36.34,-50.84,-55.88,-55.43
2020/08/25 03:36:07+0000,-37.59,-44.77,-37.02,-49.43,-55.41,-56.11
2020/08/25 03:36:59+0000,-37.99,-42.45,-37.50,-50.26,-55.72,-55.91
2020/08/25 03:37:51+0000,-37.62,-45.75,-37.87,-50.59,-55.22,-55.64
2020/08/25 03:38:43+0000,-37.85,-42.30,-37.89,-50.39,-55.84,-55.64
2020/08/25 03:39:35+0000,-38.39,-42.83,-37.99,-50.48,-55.90,-55.19
2020/08/25 03:40:27+0000,-38.39,-41.73,-38.72,-50.36,-55.61,-55.31
2020/08/25 03:41:26+0000,-38.36,-41.97,-38.59,-51.37,-55.70,-56.19
2020/08/25 03:42:18+0000,-38.03,-43.31,-38.48,-50.73,-55.91,-54.72
2020/08/25 03:43:10+0000,-38.26,-41.11,-37.25,-50.47,-55.79,-55.15
2020/08/25 03:44:02+0000,-37.63,-37.79,-38.33,-51.12,-55.32,-54.81
2020/08/25 03:44:54+0000,-39.11,-39.05,-36.82,-49.43,-54.56,-54.95
2020/08/25 03:45:46+0000,-38.04,-41.81,-35.91,-50.12,-55.26,-55.33
2020/08/25 03:46:38+0000,-37.02,-40.71,-36.59,-50.85,-55.11,-55.64
2020/08/25 03:47:31+0000,-39.20,-42.92,-36.25,-49.28,-55.35,-55.59
2020/08/25 03:48:23+0000,-39.43,-42.62,-37.36,-48.99,-54.78,-55.25
2020/08/25 03:49:15+0000,-39.00,-40.82,-37.17,-50.46,-55.18,-55.39
2020/08/25 03:50:07+0000,-38.66,-43.42,-36.55,-49.84,-55.46,-56.09
2020/08/25 03:51:11+0000,-38.48,-42.31,-36.73,-49.38,-55.13,-56.16
2020/08/25 03:52:03+0000,-38.00,-41.99,-36.60,-49.54,-55.70,-55.60
2020/08/25 03:52:55+0000,-37.61,-40.79,-36.93,-49.16,-54.92,-55.52
2020/08/25 03:53:47+0000,-37.77,-40.96,-36.37,-50.45,-55.79,-55.70
2020/08/25 03:54:39+0000,-36.37,-42.76,-36.64,-49.83,-55.63,-55.75
2020/08/25 03:55:31+0000,-39.30,-39.54,-36.52,-49.77,-55.00,-55.32
2020/08/25 03:56:23+0000,-36.88,-41.51,-36.76,-49.35,-55.46,-55.58
2020/08/25 03:57:16+0000,-39.02,-41.97,-36.86,-50.01,-54.39,-55.37
2020/08/25 03:58:08+0000,-36.53,-42.44,-36.82,-49.61,-54.99,-55.59
2020/08/25 03:59:00+0000,-38.39,-42.22,-38.17,-49.60,-55.45,-54.92
2020/08/25 03:59:52+0000,-36.52,-41.92,-36.77,-49.59,-54.77,-55.26
2020/08/25 04:00:44+0000,-37.99,-40.93,-37.42,-49.63,-55.78,-56.18
2020/08/25 04:01:47+0000,-37.50,-40.99,-35.97,-48.44,-55.00,-54.87
2020/08/25 04:02:40+0000,-36.04,-39.95,-37.07,-49.37,-55.29,-55.34
2020/08/25 04:03:32+0000,-36.71,-41.80,-36.35,-49.11,-54.62,-55.41
2020/08/25 04:04:24+0000,-36.14,-42.93,-36.93,-49.61,-55.25,-54.60
2020/08/25 04:05:16+0000,-37.04,-40.37,-36.77,-48.84,-55.58,-55.23
2020/08/25 04:06:08+0000,-36.77,-41.66,-36.54,-49.29,-55.07,-55.43
2020/08/25 04:07:00+0000,-37.78,-42.20,-36.84,-49.32,-55.41,-55.50
2020/08/25 04:07:52+0000,-35.93,-44.72,-36.91,-49.51,-55.27,-55.34
2020/08/25 04:08:44+0000,-37.97,-40.11,-36.65,-49.75,-54.80,-55.41
2020/08/25 04:09:36+0000,-37.83,-44.19,-36.87,-48.75,-54.83,-56.09
2020/08/25 04:10:28+0000,-37.46,-43.40,-36.94,-50.21,-55.39,-55.78
2020/08/25 04:11:30+0000,-38.22,-42.93,-37.09,-50.54,-54.68,-55.87
2020/08/25 04:12:22+0000,-37.73,-44.15,-36.91,-49.73,-54.52,-55.48
2020/08/25 04:13:14+0000,-37.90,-41.12,-36.47,-50.50,-54.66,-55.31
2020/08/25 04:14:06+0000,-37.37,-43.45,-37.23,-49.16,-54.89,-55.43
2020/08/25 04:14:58+0000,-37.24,-42.77,-36.36,-50.33,-55.49,-55.59
2020/08/25 04:15:50+0000,-36.99,-44.56,-35.80,-49.26,-55.02,-55.54
2020/08/25 04:16:42+0000,-38.87,-40.88,-37.53,-49.89,-54.82,-54.86
2020/08/25 04:17:34+0000,-37.53,-44.75,-36.16,-50.16,-54.88,-55.08
2020/08/25 04:18:26+0000,-36.47,-43.20,-36.92,-50.13,-54.92,-55.34
2020/08/25 04:19:19+0000,-37.30,-40.54,-36.21,-49.60,-54.62,-55.08
2020/08/25 04:20:11+0000,-36.68,-40.50,-36.57,-49.90,-55.17,-55.64
2020/08/25 04:21:16+0000,-37.93,-41.74,-35.80,-49.63,-55.27,-55.65
2020/08/25 04:22:08+0000,-39.54,-41.80,-36.64,-50.03,-55.20,-54.97
2020/08/25 04:23:00+0000,-39.20,-41.71,-35.77,-49.84,-55.59,-54.98
2020/08/25 04:23:52+0000,-35.68,-43.63,-35.99,-49.07,-54.65,-55.63
2020/08/25 04:24:44+0000,-37.22,-39.69,-35.93,-48.52,-55.78,-55.21
2020/08/25 04:25:36+0000,-37.94,-41.76,-36.65,-49.40,-55.72,-54.94
2020/08/25 04:26:28+0000,-36.48,-42.56,-36.24,-49.37,-55.25,-55.44
2020/08/25 04:27:20+0000,-34.88,-44.96,-36.56,-49.52,-55.68,-55.66
2020/08/25 04:28:12+0000,-37.34,-40.94,-36.61,-50.25,-54.83,-55.32
2020/08/25 04:29:04+0000,-37.94,-43.48,-36.95,-50.70,-54.99,-55.36
2020/08/25 04:29:56+0000,-35.44,-41.74,-36.83,-49.82,-54.84,-55.72
2020/08/25 04:30:48+0000,-34.36,-42.51,-36.45,-49.45,-55.31,-54.99
2020/08/25 04:32:03+0000,-35.03,-42.86,-36.04,-50.46,-55.24,-56.00
2020/08/25 04:32:55+0000,-37.24,-43.07,-37.21,-50.17,-53.38,-55.32
2020/08/25 04:33:47+0000,-35.22,-41.72,-36.77,-50.17,-54.18,-55.64
2020/08/25 04:34:39+0000,-36.46,-41.56,-36.51,-50.11,-55.35,-55.23
2020/08/25 04:35:31+0000,-38.73,-43.52,-37.02,-49.42,-54.79,-55.16
2020/08/25 04:36:23+0000,-38.04,-43.11,-36.78,-49.67,-55.83,-55.12
2020/08/25 04:37:15+0000,-40.73,-44.49,-37.09,-50.72,-55.24,-55.28
2020/08/25 04:38:07+0000,-39.06,-41.09,-36.97,-50.29,-55.08,-55.47
2020/08/25 04:38:59+0000,-34.81,-42.48,-36.63,-50.05,-55.16,-55.78
2020/08/25 04:39:52+0000,-39.38,-43.86,-37.40,-49.47,-55.59,-55.64
2020/08/25 04:40:44+0000,-37.48,-41.99,-38.23,-50.73,-55.92,-55.25
2020/08/25 04:41:43+0000,-39.19,-43.05,-37.39,-50.15,-55.49,-55.10
2020/08/25 04:42:35+0000,-37.84,-43.02,-36.90,-49.94,-54.66,-55.61
2020/08/25 04:43:27+0000,-39.14,-42.23,-37.25,-50.07,-54.44,-55.62
2020/08/25 04:44:19+0000,-39.22,-42.47,-37.20,-50.44,-55.43,-55.20